Time,TemperatureF,DewpointF,PressureIn,WindDirection,WindDirectionDegrees,WindSpeedMPH,WindSpeedGustMPH,Humidity,HourlyPrecipIn,Conditions,Clouds,dailyrainin,SolarRadiationWatts/m^2,SoftwareType,DateUTC
2013-05-30 00:00:00,52.2,45.5,29.87,West,264,0.0,0.0,78,0.00,,,0.00,0,WeatherCatV1.12B45,2013-05-30 07:00:00,
2013-05-30 00:05:00,52.0,45.4,29.87,West,260,0.0,0.0,78,0.00,,,0.00,0,WeatherCatV1.12B45,2013-05-30 07:05:00,
2013-05-30 00:10:00,51.9,45.3,29.87,West,267,0.0,0.0,78,0.00,,,0.00,0,WeatherCatV1.12B45,2013-05-30 07:10:00,
2013-05-30 00:15:00,51.7,45.4,29.87,West,263,0.0,0.0,79,0.00,,,0.00,0,WeatherCatV1.12B45,2013-05-30 07:15:00,
2013-05-30 00:20:00,51.6,45.3,29.87,WSW,251,0.0,0.0,79,0.00,,,0.00,0,WeatherCatV1.12B45,2013-05-30 07:20:00,
2013-05-30 00:25:00,51.4,45.4,29.87,WSW,256,0.0,0.0,80,0.00,,,0.00,0,WeatherCatV1.12B45,2013-05-30 07:25:00,
2013-05-30 00:30:00,51.3,45.3,29.87,WSW,244,0.0,0.0,80,0.00,,,0.00,0,WeatherCatV1.12B45,2013-05-30 07:30:00,
2013-05-30 00:35:00,51.1,45.5,29.87,WSW,251,0.0,0.0,81,0.00,,,0.00,0,WeatherCatV1.12B45,2013-05-30 07:35:00,
2013-05-30 00:40:00,51.0,45.4,29.87,WSW,253,0.0,0.0,81,0.00,,,0.00,0,WeatherCatV1.12B45,2013-05-30 07:40:00,
2013-05-30 00:45:00,50.8,45.2,29.87,SE,133,0.0,0.0,81,0.00,,,0.00,0,WeatherCatV1.12B45,2013-05-30 07:45:00,
2013-05-30 00:50:00,50.7,45.1,29.87,WSW,250,0.0,0.0,81,0.00,,,0.00,0,WeatherCatV1.12B45,2013-05-30 07:50:00,
2013-05-30 00:55:00,50.5,45.2,29.87,WSW,251,0.0,0.0,82,0.00,,,0.00,0,WeatherCatV1.12B45,2013-05-30 07:55:00,
2013-05-30 01:00:00,50.4,45.1,29.86,WSW,253,0.0,0.0,82,0.00,,,0.00,0,WeatherCatV1.12B45,2013-05-30 08:00:00,
2013-05-30 01:05:00,50.2,44.9,29.86,WSW,248,0.0,0.0,82,0.00,,,0.00,0,WeatherCatV1.12B45,2013-05-30 08:05:00,
2013-05-30 01:10:00,50.1,45.1,29.86,WSW,250,0.0,0.0,83,0.00,,,0.00,0,WeatherCatV1.12B45,2013-05-30 08:10:00,
2013-05-30 01:15:00,49.9,44.9,29.86,WSW,246,0.0,0.0,83,0.00,,,0.00,0,WeatherCatV1.12B45,2013-05-30 08:15:00,
2013-05-30 01:20:00,49.8,44.8,29.86,WSW,247,0.0,0.0,83,0.00,,,0.00,0,WeatherCatV1.12B45,2013-05-30 08:20:00,
2013-05-30 01:25:00,49.6,44.7,29.86,WSW,258,0.0,0.0,83,0.00,,,0.00,0,WeatherCatV1.12B45,2013-05-30 08:25:00,
2013-05-30 01:30:00,49.5,44.6,29.86,WSW,243,0.0,0.0,83,0.00,,,0.00,0,WeatherCatV1.12B45,2013-05-30 08:30:00,
2013-05-30 01:35:00,49.4,44.8,29.86,WSW,237,0.0,0.0,84,0.00,,,0.00,0,WeatherCatV1.12B45,2013-05-30 08:35:00,
2013-05-30 01:40:00,49.4,44.8,29.86,WSW,258,0.0,0.0,84,0.00,,,0.00,0,WeatherCatV1.12B45,2013-05-30 08:40:00,
2013-05-30 01:45:00,49.2,44.6,29.86,WSW,254,0.0,0.0,84,0.00,,,0.00,0,WeatherCatV1.12B45,2013-05-30 08:45:00,
2013-05-30 01:50:00,49.1,44.5,29.86,WSW,251,0.0,0.0,84,0.00,,,0.00,0,WeatherCatV1.12B45,2013-05-30 08:50:00,
2013-05-30 01:55:00,48.9,44.6,29.86,WSW,254,0.0,0.0,85,0.00,,,0.00,0,WeatherCatV1.12B45,2013-05-30 08:55:00,
2013-05-30 02:00:00,48.8,44.5,29.86,WSW,250,0.0,0.0,85,0.00,,,0.00,0,WeatherCatV1.12B45,2013-05-30 09:00:00,
2013-05-30 02:05:00,48.6,44.3,29.86,WSW,250,0.0,0.0,85,0.00,,,0.00,0,WeatherCatV1.12B45,2013-05-30 09:05:00,
2013-05-30 02:10:00,48.5,44.2,29.86,SW,229,0.0,0.0,85,0.00,,,0.00,0,WeatherCatV1.12B45,2013-05-30 09:10:00,
2013-05-30 02:15:00,48.5,44.2,29.86,SSW,213,0.0,0.0,85,0.00,,,0.00,0,WeatherCatV1.12B45,2013-05-30 09:15:00,
2013-05-30 02:20:00,48.2,43.9,29.86,SW,220,0.0,0.0,85,0.00,,,0.00,0,WeatherCatV1.12B45,2013-05-30 09:20:00,
2013-05-30 02:25:00,48.2,44.2,29.86,SW,222,0.0,0.0,86,0.00,,,0.00,0,WeatherCatV1.12B45,2013-05-30 09:25:00,
2013-05-30 02:30:00,48.0,44.0,29.86,SW,216,0.0,0.0,86,0.00,,,0.00,0,WeatherCatV1.12B45,2013-05-30 09:30:00,
2013-05-30 02:35:00,48.0,44.0,29.86,SW,223,0.0,0.0,86,0.00,,,0.00,0,WeatherCatV1.12B45,2013-05-30 09:35:00,
2013-05-30 02:40:00,47.9,44.2,29.86,SW,220,0.0,0.0,87,0.00,,,0.00,0,WeatherCatV1.12B45,2013-05-30 09:40:00,
2013-05-30 02:45:00,47.7,43.7,29.86,WSW,250,0.0,0.0,86,0.00,,,0.00,0,WeatherCatV1.12B45,2013-05-30 09:45:00,
2013-05-30 02:50:00,47.6,43.6,29.86,WSW,257,0.0,0.0,86,0.00,,,0.00,0,WeatherCatV1.12B45,2013-05-30 09:50:00,
2013-05-30 02:55:00,47.4,43.7,29.86,WSW,241,0.0,0.0,87,0.00,,,0.00,0,WeatherCatV1.12B45,2013-05-30 09:55:00,
2013-05-30 03:00:00,47.4,43.7,29.86,WSW,237,0.0,0.0,87,0.00,,,0.00,0,WeatherCatV1.12B45,2013-05-30 10:00:00,
2013-05-30 03:05:00,47.1,43.4,29.86,WSW,240,0.0,0.0,87,0.00,,,0.00,0,WeatherCatV1.12B45,2013-05-30 10:05:00,
2013-05-30 03:10:00,47.0,43.3,29.86,WSW,243,0.0,0.0,87,0.00,,,0.00,0,WeatherCatV1.12B45,2013-05-30 10:10:00,
2013-05-30 03:15:00,47.0,43.3,29.86,WSW,244,0.0,0.0,87,0.00,,,0.00,0,WeatherCatV1.12B45,2013-05-30 10:15:00,
2013-05-30 03:20:00,46.8,43.1,29.86,WSW,254,0.0,0.0,87,0.00,,,0.00,0,WeatherCatV1.12B45,2013-05-30 10:20:00,
2013-05-30 03:25:00,46.8,43.1,29.86,West,261,0.0,0.0,87,0.00,,,0.00,0,WeatherCatV1.12B45,2013-05-30 10:25:00,
2013-05-30 03:30:00,46.8,43.1,29.86,WSW,258,0.0,0.0,87,0.00,,,0.00,0,WeatherCatV1.12B45,2013-05-30 10:30:00,
2013-05-30 03:35:00,46.4,43.0,29.86,WSW,254,0.0,0.0,88,0.00,,,0.00,0,WeatherCatV1.12B45,2013-05-30 10:35:00,
2013-05-30 03:40:00,46.2,42.8,29.86,WSW,247,0.0,0.0,88,0.00,,,0.00,0,WeatherCatV1.12B45,2013-05-30 10:40:00,
2013-05-30 03:45:00,46.1,42.7,29.86,WSW,257,0.0,0.0,88,0.00,,,0.00,0,WeatherCatV1.12B45,2013-05-30 10:45:00,
2013-05-30 03:50:00,46.1,42.7,29.86,WSW,251,0.0,0.0,88,0.00,,,0.00,0,WeatherCatV1.12B45,2013-05-30 10:50:00,
2013-05-30 03:55:00,46.1,43.0,29.86,WSW,251,0.0,0.0,89,0.00,,,0.00,0,WeatherCatV1.12B45,2013-05-30 10:55:00,
2013-05-30 04:00:00,46.1,43.0,29.86,WSW,244,0.0,0.0,89,0.00,,,0.00,0,WeatherCatV1.12B45,2013-05-30 11:00:00,
2013-05-30 04:05:00,46.0,42.9,29.86,SW,229,0.0,0.0,89,0.00,,,0.00,0,WeatherCatV1.12B45,2013-05-30 11:05:00,
2013-05-30 04:10:00,45.8,42.7,29.86,SW,230,0.0,0.0,89,0.00,,,0.00,0,WeatherCatV1.12B45,2013-05-30 11:10:00,
2013-05-30 04:15:00,45.7,42.6,29.87,SSW,200,0.0,0.0,89,0.00,,,0.00,0,WeatherCatV1.12B45,2013-05-30 11:15:00,
2013-05-30 04:20:00,45.5,42.4,29.87,SSW,199,0.0,0.0,89,0.00,,,0.00,0,WeatherCatV1.12B45,2013-05-30 11:20:00,
2013-05-30 04:25:00,45.5,42.4,29.87,SSW,213,0.0,0.0,89,0.00,,,0.00,0,WeatherCatV1.12B45,2013-05-30 11:25:00,
2013-05-30 04:30:00,45.4,42.3,29.87,South,175,0.0,0.0,89,0.00,,,0.00,0,WeatherCatV1.12B45,2013-05-30 11:30:00,
2013-05-30 04:35:00,45.2,42.2,29.87,South,171,0.0,0.0,89,0.00,,,0.00,0,WeatherCatV1.12B45,2013-05-30 11:35:00,
2013-05-30 04:40:00,45.1,42.1,29.87,SSE,167,0.0,0.0,89,0.00,,,0.00,0,WeatherCatV1.12B45,2013-05-30 11:40:00,
2013-05-30 04:45:00,45.1,42.1,29.87,South,181,0.0,0.0,89,0.00,,,0.00,0,WeatherCatV1.12B45,2013-05-30 11:45:00,
2013-05-30 04:50:00,44.8,41.8,29.87,South,172,0.0,0.0,89,0.00,,,0.00,0,WeatherCatV1.12B45,2013-05-30 11:50:00,
2013-05-30 04:55:00,44.6,41.6,29.87,South,181,0.0,0.0,89,0.00,,,0.00,0,WeatherCatV1.12B45,2013-05-30 11:55:00,
2013-05-30 05:00:00,44.6,41.6,29.87,South,178,0.0,0.0,89,0.00,,,0.00,0,WeatherCatV1.12B45,2013-05-30 12:00:00,
2013-05-30 05:05:00,44.6,41.6,29.87,SSW,209,0.0,0.0,89,0.00,,,0.00,0,WeatherCatV1.12B45,2013-05-30 12:05:00,
2013-05-30 05:10:00,44.5,41.8,29.87,SSW,202,0.0,0.0,90,0.00,,,0.00,0,WeatherCatV1.12B45,2013-05-30 12:10:00,
2013-05-30 05:15:00,44.5,41.8,29.87,SSW,203,0.0,0.0,90,0.00,,,0.00,0,WeatherCatV1.12B45,2013-05-30 12:15:00,
2013-05-30 05:20:00,44.3,41.6,29.87,SSW,206,0.0,0.0,90,0.00,,,0.00,0,WeatherCatV1.12B45,2013-05-30 12:20:00,
2013-05-30 05:25:00,44.2,41.5,29.87,South,172,0.0,0.0,90,0.00,,,0.00,0,WeatherCatV1.12B45,2013-05-30 12:25:00,
2013-05-30 05:30:00,44.2,41.5,29.87,South,182,0.0,0.0,90,0.00,,,0.00,0,WeatherCatV1.12B45,2013-05-30 12:30:00,
2013-05-30 05:35:00,44.1,41.4,29.87,SSE,162,0.0,0.0,90,0.00,,,0.00,0,WeatherCatV1.12B45,2013-05-30 12:35:00,
2013-05-30 05:40:00,44.1,41.4,29.87,SSE,168,0.0,0.0,90,0.00,,,0.00,0,WeatherCatV1.12B45,2013-05-30 12:40:00,
2013-05-30 05:45:00,43.9,41.2,29.87,South,169,0.0,0.0,90,0.00,,,0.00,0,WeatherCatV1.12B45,2013-05-30 12:45:00,
2013-05-30 05:50:00,43.9,41.2,29.87,SSE,165,0.0,0.0,90,0.00,,,0.00,0,WeatherCatV1.12B45,2013-05-30 12:50:00,
2013-05-30 05:55:00,43.8,41.1,29.87,SSE,164,0.0,0.0,90,0.00,,,0.00,0,WeatherCatV1.12B45,2013-05-30 12:55:00,
2013-05-30 06:00:00,43.8,41.1,29.87,SSE,165,0.0,0.0,90,0.00,,,0.00,0,WeatherCatV1.12B45,2013-05-30 13:00:00,
2013-05-30 06:05:00,43.8,41.1,29.87,SSE,165,0.0,0.0,90,0.00,,,0.00,5,WeatherCatV1.12B45,2013-05-30 13:05:00,
2013-05-30 06:10:00,43.8,41.3,29.87,South,171,0.0,0.0,91,0.00,,,0.00,7,WeatherCatV1.12B45,2013-05-30 13:10:00,
2013-05-30 06:15:00,43.8,41.3,29.88,South,181,0.0,0.0,91,0.00,,,0.00,7,WeatherCatV1.12B45,2013-05-30 13:15:00,
2013-05-30 06:20:00,43.8,41.3,29.88,South,176,0.0,0.0,91,0.00,,,0.00,14,WeatherCatV1.12B45,2013-05-30 13:20:00,
2013-05-30 06:25:00,43.8,41.3,29.88,SW,224,0.0,0.0,91,0.00,,,0.00,18,WeatherCatV1.12B45,2013-05-30 13:25:00,
2013-05-30 06:30:00,44.1,41.6,29.88,SW,223,0.0,0.0,91,0.00,,,0.00,21,WeatherCatV1.12B45,2013-05-30 13:30:00,
2013-05-30 06:35:00,44.1,41.6,29.88,SW,223,0.0,0.0,91,0.00,,,0.00,23,WeatherCatV1.12B45,2013-05-30 13:35:00,
2013-05-30 06:40:00,44.2,42.0,29.88,SW,215,0.0,0.0,92,0.00,,,0.00,23,WeatherCatV1.12B45,2013-05-30 13:40:00,
2013-05-30 06:45:00,44.2,42.0,29.89,WSW,246,0.0,0.0,92,0.00,,,0.00,35,WeatherCatV1.12B45,2013-05-30 13:45:00,
2013-05-30 06:50:00,44.9,42.7,29.89,West,267,0.0,0.0,92,0.00,,,0.00,35,WeatherCatV1.12B45,2013-05-30 13:50:00,
2013-05-30 06:55:00,45.1,42.9,29.89,WNW,296,0.0,0.0,92,0.00,,,0.00,35,WeatherCatV1.12B45,2013-05-30 13:55:00,
2013-05-30 07:00:00,45.8,43.9,29.89,WNW,298,0.0,0.0,93,0.00,,,0.00,148,WeatherCatV1.12B45,2013-05-30 14:00:00,
2013-05-30 07:05:00,47.3,45.4,29.89,NW,320,0.0,0.0,93,0.00,,,0.00,164,WeatherCatV1.12B45,2013-05-30 14:05:00,
2013-05-30 07:10:00,48.5,46.6,29.89,NW,320,0.0,0.0,93,0.00,,,0.00,179,WeatherCatV1.12B45,2013-05-30 14:10:00,
2013-05-30 07:15:00,49.5,47.6,29.89,NNW,329,0.0,0.0,93,0.00,,,0.00,197,WeatherCatV1.12B45,2013-05-30 14:15:00,
2013-05-30 07:20:00,50.7,48.5,29.89,NW,322,0.0,0.0,92,0.00,,,0.00,211,WeatherCatV1.12B45,2013-05-30 14:20:00,
2013-05-30 07:25:00,51.7,48.9,29.89,NNW,336,0.0,0.0,90,0.00,,,0.00,222,WeatherCatV1.12B45,2013-05-30 14:25:00,
2013-05-30 07:30:00,52.3,49.5,29.89,NNW,329,0.0,0.0,90,0.00,,,0.00,234,WeatherCatV1.12B45,2013-05-30 14:30:00,
2013-05-30 07:35:00,53.3,49.8,29.89,WNW,296,0.0,0.0,88,0.00,,,0.00,257,WeatherCatV1.12B45,2013-05-30 14:35:00,
2013-05-30 07:40:00,53.9,50.4,29.89,West,278,0.0,0.0,88,0.00,,,0.00,266,WeatherCatV1.12B45,2013-05-30 14:40:00,
2013-05-30 07:45:00,54.8,50.4,29.89,NW,319,0.0,0.0,85,0.00,,,0.00,299,WeatherCatV1.12B45,2013-05-30 14:45:00,
2013-05-30 07:50:00,55.6,51.2,29.89,NW,316,0.0,0.0,85,0.00,,,0.00,315,WeatherCatV1.12B45,2013-05-30 14:50:00,
2013-05-30 07:55:00,56.0,50.6,29.89,NNW,329,0.0,0.0,82,0.00,,,0.00,315,WeatherCatV1.12B45,2013-05-30 14:55:00,
2013-05-30 08:00:00,56.7,49.9,29.90,NW,322,0.0,0.0,78,0.00,,,0.00,348,WeatherCatV1.12B45,2013-05-30 15:00:00,
2013-05-30 08:05:00,57.3,50.2,29.90,NW,308,0.0,0.0,77,0.00,,,0.00,357,WeatherCatV1.12B45,2013-05-30 15:05:00,
2013-05-30 08:10:00,57.5,50.3,29.90,NW,320,0.0,0.0,77,0.00,,,0.00,357,WeatherCatV1.12B45,2013-05-30 15:10:00,
2013-05-30 08:15:00,58.1,50.2,29.90,WNW,285,0.0,0.0,75,0.00,,,0.00,394,WeatherCatV1.12B45,2013-05-30 15:15:00,
2013-05-30 08:20:00,58.7,50.1,29.90,WNW,291,0.0,0.0,73,0.00,,,0.00,408,WeatherCatV1.12B45,2013-05-30 15:20:00,
2013-05-30 08:25:00,59.5,50.1,29.90,West,275,0.0,0.0,71,0.00,,,0.00,438,WeatherCatV1.12B45,2013-05-30 15:25:00,
2013-05-30 08:30:00,59.9,50.5,29.90,WNW,292,0.0,0.0,71,0.00,,,0.00,438,WeatherCatV1.12B45,2013-05-30 15:30:00,
2013-05-30 08:35:00,60.2,49.2,29.90,NNW,332,1.0,1.0,67,0.00,,,0.00,465,WeatherCatV1.12B45,2013-05-30 15:35:00,
2013-05-30 08:40:00,60.7,49.7,29.90,NNW,329,0.0,0.0,67,0.00,,,0.00,484,WeatherCatV1.12B45,2013-05-30 15:40:00,
2013-05-30 08:45:00,61.6,50.5,29.90,NW,323,0.0,0.0,67,0.00,,,0.00,505,WeatherCatV1.12B45,2013-05-30 15:45:00,
2013-05-30 08:50:00,62.3,51.2,29.90,NW,325,0.0,1.0,67,0.00,,,0.00,523,WeatherCatV1.12B45,2013-05-30 15:50:00,
2013-05-30 08:55:00,62.6,49.8,29.90,NNW,329,0.0,1.0,63,0.00,,,0.00,523,WeatherCatV1.12B45,2013-05-30 15:55:00,
2013-05-30 09:00:00,63.1,49.4,29.90,WNW,284,1.0,2.0,61,0.00,,,0.00,544,WeatherCatV1.12B45,2013-05-30 16:00:00,
2013-05-30 09:05:00,63.2,49.5,29.90,WNW,285,0.0,1.0,61,0.00,,,0.00,568,WeatherCatV1.12B45,2013-05-30 16:05:00,
2013-05-30 09:10:00,63.5,49.4,29.90,WNW,302,0.0,3.0,60,0.00,,,0.00,589,WeatherCatV1.12B45,2013-05-30 16:10:00,
2013-05-30 09:15:00,63.7,49.5,29.91,North,353,3.0,3.0,60,0.00,,,0.00,605,WeatherCatV1.12B45,2013-05-30 16:15:00,
2013-05-30 09:20:00,63.9,49.7,29.91,NNW,347,0.0,3.0,60,0.00,,,0.00,616,WeatherCatV1.12B45,2013-05-30 16:20:00,
2013-05-30 09:25:00,64.2,50.0,29.91,NW,318,1.0,3.0,60,0.00,,,0.00,637,WeatherCatV1.12B45,2013-05-30 16:25:00,
2013-05-30 09:30:00,64.7,50.0,29.90,West,280,0.0,1.0,59,0.00,,,0.00,637,WeatherCatV1.12B45,2013-05-30 16:30:00,
2013-05-30 09:35:00,65.5,50.8,29.90,West,271,0.0,2.0,59,0.00,,,0.00,658,WeatherCatV1.12B45,2013-05-30 16:35:00,
2013-05-30 09:40:00,65.6,49.9,29.90,West,281,1.0,1.0,57,0.00,,,0.00,663,WeatherCatV1.12B45,2013-05-30 16:40:00,
2013-05-30 09:45:00,65.8,49.7,29.90,WNW,284,1.0,2.0,56,0.00,,,0.00,663,WeatherCatV1.12B45,2013-05-30 16:45:00,
2013-05-30 09:50:00,65.5,49.4,29.90,WNW,295,5.0,5.0,56,0.00,,,0.00,691,WeatherCatV1.12B45,2013-05-30 16:50:00,
2013-05-30 09:55:00,65.3,49.2,29.90,NW,315,0.0,3.0,56,0.00,,,0.00,691,WeatherCatV1.12B45,2013-05-30 16:55:00,
2013-05-30 10:00:00,65.6,49.5,29.90,NW,315,0.0,3.0,56,0.00,,,0.00,691,WeatherCatV1.12B45,2013-05-30 17:00:00,
2013-05-30 10:05:00,65.6,49.5,29.90,NW,320,1.0,1.0,56,0.00,,,0.00,691,WeatherCatV1.12B45,2013-05-30 17:05:00,
2013-05-30 10:10:00,65.8,49.7,29.90,NW,316,0.0,0.0,56,0.00,,,0.00,691,WeatherCatV1.12B45,2013-05-30 17:10:00,
2013-05-30 10:15:00,66.3,50.1,29.90,West,280,0.0,0.0,56,0.00,,,0.00,691,WeatherCatV1.12B45,2013-05-30 17:15:00,
2013-05-30 10:20:00,66.8,50.6,29.90,WNW,295,0.0,1.0,56,0.00,,,0.00,691,WeatherCatV1.12B45,2013-05-30 17:20:00,
2013-05-30 10:25:00,66.8,50.6,29.90,West,280,2.0,3.0,56,0.00,,,0.00,691,WeatherCatV1.12B45,2013-05-30 17:25:00,
2013-05-30 10:30:00,66.4,48.7,29.90,WNW,296,0.0,3.0,53,0.00,,,0.00,795,WeatherCatV1.12B45,2013-05-30 17:30:00,
2013-05-30 10:35:00,66.4,48.7,29.90,WNW,298,0.0,2.0,53,0.00,,,0.00,813,WeatherCatV1.12B45,2013-05-30 17:35:00,
2013-05-30 10:40:00,66.6,48.9,29.90,West,265,0.0,3.0,53,0.00,,,0.00,825,WeatherCatV1.12B45,2013-05-30 17:40:00,
2013-05-30 10:45:00,66.8,49.1,29.90,WNW,294,2.0,4.0,53,0.00,,,0.00,836,WeatherCatV1.12B45,2013-05-30 17:45:00,
2013-05-30 10:50:00,66.8,49.1,29.90,NW,309,2.0,3.0,53,0.00,,,0.00,843,WeatherCatV1.12B45,2013-05-30 17:50:00,
2013-05-30 10:55:00,66.6,48.9,29.90,NNW,340,3.0,3.0,53,0.00,,,0.00,852,WeatherCatV1.12B45,2013-05-30 17:55:00,
2013-05-30 11:00:00,66.8,48.6,29.90,WNW,296,0.0,3.0,52,0.00,,,0.00,860,WeatherCatV1.12B45,2013-05-30 18:00:00,
2013-05-30 11:05:00,67.1,48.9,29.90,NNW,330,1.0,5.0,52,0.00,,,0.00,866,WeatherCatV1.12B45,2013-05-30 18:05:00,
2013-05-30 11:10:00,67.1,48.4,29.90,NNW,333,2.0,2.0,51,0.00,,,0.00,874,WeatherCatV1.12B45,2013-05-30 18:10:00,
2013-05-30 11:15:00,67.1,48.4,29.90,NNW,336,0.0,3.0,51,0.00,,,0.00,889,WeatherCatV1.12B45,2013-05-30 18:15:00,
2013-05-30 11:20:00,67.6,47.8,29.90,NNW,335,0.0,3.0,49,0.00,,,0.00,890,WeatherCatV1.12B45,2013-05-30 18:20:00,
2013-05-30 11:25:00,67.6,48.3,29.90,NW,311,2.0,2.0,50,0.00,,,0.00,890,WeatherCatV1.12B45,2013-05-30 18:25:00,
2013-05-30 11:30:00,67.8,48.5,29.90,NW,311,1.0,3.0,50,0.00,,,0.00,910,WeatherCatV1.12B45,2013-05-30 18:30:00,
2013-05-30 11:35:00,67.9,48.6,29.90,WNW,291,2.0,2.0,50,0.00,,,0.00,913,WeatherCatV1.12B45,2013-05-30 18:35:00,
2013-05-30 11:40:00,68.4,48.5,29.90,NW,318,1.0,2.0,49,0.00,,,0.00,922,WeatherCatV1.12B45,2013-05-30 18:40:00,
2013-05-30 11:45:00,68.8,48.8,29.90,NW,308,2.0,2.0,49,0.00,,,0.00,929,WeatherCatV1.12B45,2013-05-30 18:45:00,
2013-05-30 11:50:00,69.1,49.1,29.90,NW,313,3.0,6.0,49,0.00,,,0.00,936,WeatherCatV1.12B45,2013-05-30 18:50:00,
2013-05-30 11:55:00,69.1,48.6,29.90,NNW,329,1.0,1.0,48,0.00,,,0.00,941,WeatherCatV1.12B45,2013-05-30 18:55:00,
2013-05-30 12:00:00,69.6,49.0,29.90,NNW,332,2.0,3.0,48,0.00,,,0.00,941,WeatherCatV1.12B45,2013-05-30 19:00:00,
2013-05-30 12:05:00,70.1,48.9,29.90,NNW,329,2.0,2.0,47,0.00,,,0.00,945,WeatherCatV1.12B45,2013-05-30 19:05:00,
2013-05-30 12:10:00,70.8,49.0,29.90,NW,318,1.0,3.0,46,0.00,,,0.00,957,WeatherCatV1.12B45,2013-05-30 19:10:00,
2013-05-30 12:15:00,70.9,48.5,29.90,WNW,296,3.0,6.0,45,0.00,,,0.00,959,WeatherCatV1.12B45,2013-05-30 19:15:00,
2013-05-30 12:20:00,70.9,47.9,29.90,NW,309,0.0,6.0,44,0.00,,,0.00,961,WeatherCatV1.12B45,2013-05-30 19:20:00,
2013-05-30 12:25:00,71.5,49.0,29.90,NW,315,0.0,2.0,45,0.00,,,0.00,970,WeatherCatV1.12B45,2013-05-30 19:25:00,
2013-05-30 12:30:00,72.0,48.3,29.90,NNW,335,0.0,2.0,43,0.00,,,0.00,973,WeatherCatV1.12B45,2013-05-30 19:30:00,
2013-05-30 12:35:00,72.3,48.5,29.90,NW,313,3.0,3.0,43,0.00,,,0.00,977,WeatherCatV1.12B45,2013-05-30 19:35:00,
2013-05-30 12:40:00,72.3,47.9,29.90,WNW,294,0.0,3.0,42,0.00,,,0.00,978,WeatherCatV1.12B45,2013-05-30 19:40:00,
2013-05-30 12:45:00,72.3,47.9,29.90,NW,325,2.0,3.0,42,0.00,,,0.00,978,WeatherCatV1.12B45,2013-05-30 19:45:00,
2013-05-30 12:50:00,72.1,48.4,29.90,NW,313,2.0,3.0,43,0.00,,,0.00,978,WeatherCatV1.12B45,2013-05-30 19:50:00,
2013-05-30 12:55:00,72.3,48.5,29.90,NW,306,1.0,1.0,43,0.00,,,0.00,980,WeatherCatV1.12B45,2013-05-30 19:55:00,
2013-05-30 13:00:00,72.3,48.5,29.89,NW,308,2.0,2.0,43,0.00,,,0.00,980,WeatherCatV1.12B45,2013-05-30 20:00:00,
2013-05-30 13:05:00,73.2,48.7,29.89,WNW,289,1.0,3.0,42,0.00,,,0.00,980,WeatherCatV1.12B45,2013-05-30 20:05:00,
2013-05-30 13:10:00,73.2,48.7,29.89,WNW,296,4.0,5.0,42,0.00,,,0.00,980,WeatherCatV1.12B45,2013-05-30 20:10:00,
2013-05-30 13:15:00,73.2,48.7,29.89,WNW,284,0.0,2.0,42,0.00,,,0.00,980,WeatherCatV1.12B45,2013-05-30 20:15:00,
2013-05-30 13:20:00,73.3,48.8,29.89,West,271,0.0,3.0,42,0.00,,,0.00,980,WeatherCatV1.12B45,2013-05-30 20:20:00,
2013-05-30 13:25:00,73.3,48.8,29.89,WNW,285,1.0,1.0,42,0.00,,,0.00,978,WeatherCatV1.12B45,2013-05-30 20:25:00,
2013-05-30 13:30:00,73.3,48.8,29.89,West,264,0.0,3.0,42,0.00,,,0.00,971,WeatherCatV1.12B45,2013-05-30 20:30:00,
2013-05-30 13:35:00,74.2,49.0,29.89,WNW,284,1.0,1.0,41,0.00,,,0.00,975,WeatherCatV1.12B45,2013-05-30 20:35:00,
2013-05-30 13:40:00,74.4,49.1,29.89,NNW,335,3.0,3.0,41,0.00,,,0.00,973,WeatherCatV1.12B45,2013-05-30 20:40:00,
2013-05-30 13:45:00,75.1,49.1,29.89,NW,309,0.0,5.0,40,0.00,,,0.00,966,WeatherCatV1.12B45,2013-05-30 20:45:00,
2013-05-30 13:50:00,75.6,49.6,29.89,WNW,295,0.0,1.0,40,0.00,,,0.00,966,WeatherCatV1.12B45,2013-05-30 20:50:00,
2013-05-30 13:55:00,76.3,49.5,29.89,NW,306,2.0,2.0,39,0.00,,,0.00,959,WeatherCatV1.12B45,2013-05-30 20:55:00,
2013-05-30 14:00:00,76.7,48.4,29.88,North,349,0.0,2.0,37,0.00,,,0.00,957,WeatherCatV1.12B45,2013-05-30 21:00:00,
2013-05-30 14:05:00,76.8,47.8,29.88,North,349,0.0,1.0,36,0.00,,,0.00,955,WeatherCatV1.12B45,2013-05-30 21:05:00,
2013-05-30 14:10:00,77.6,49.2,29.88,NNW,344,2.0,3.0,37,0.00,,,0.00,950,WeatherCatV1.12B45,2013-05-30 21:10:00,
2013-05-30 14:15:00,77.9,49.5,29.88,NNW,344,0.0,5.0,37,0.00,,,0.00,945,WeatherCatV1.12B45,2013-05-30 21:15:00,
2013-05-30 14:20:00,77.6,49.2,29.88,NNW,340,2.0,5.0,37,0.00,,,0.00,936,WeatherCatV1.12B45,2013-05-30 21:20:00,
2013-05-30 14:25:00,77.2,48.9,29.88,North,354,5.0,5.0,37,0.00,,,0.00,929,WeatherCatV1.12B45,2013-05-30 21:25:00,
2013-05-30 14:30:00,77.4,49.8,29.88,North,354,0.0,2.0,38,0.00,,,0.00,918,WeatherCatV1.12B45,2013-05-30 21:30:00,
2013-05-30 14:35:00,77.9,49.5,29.88,North,354,0.0,0.0,37,0.00,,,0.00,917,WeatherCatV1.12B45,2013-05-30 21:35:00,
2013-05-30 14:40:00,78.3,48.4,29.88,North,356,0.0,2.0,35,0.00,,,0.00,911,WeatherCatV1.12B45,2013-05-30 21:40:00,
2013-05-30 14:45:00,78.5,48.5,29.87,North,357,2.0,3.0,35,0.00,,,0.00,911,WeatherCatV1.12B45,2013-05-30 21:45:00,
2013-05-30 14:50:00,78.5,48.5,29.87,North,356,1.0,3.0,35,0.00,,,0.00,903,WeatherCatV1.12B45,2013-05-30 21:50:00,
2013-05-30 14:55:00,78.6,48.6,29.87,North,356,2.0,2.0,35,0.00,,,0.00,883,WeatherCatV1.12B45,2013-05-30 21:55:00,
2013-05-30 15:00:00,79.0,48.2,29.87,North,356,0.0,2.0,34,0.00,,,0.00,876,WeatherCatV1.12B45,2013-05-30 22:00:00,
2013-05-30 15:05:00,79.2,48.4,29.87,NNW,339,1.0,2.0,34,0.00,,,0.00,874,WeatherCatV1.12B45,2013-05-30 22:05:00,
2013-05-30 15:10:00,79.2,46.8,29.87,NNW,335,1.0,1.0,32,0.00,,,0.00,864,WeatherCatV1.12B45,2013-05-30 22:10:00,
2013-05-30 15:15:00,79.2,46.8,29.87,NW,312,0.0,1.0,32,0.00,,,0.00,864,WeatherCatV1.12B45,2013-05-30 22:15:00,
2013-05-30 15:20:00,79.0,46.6,29.87,NW,326,0.0,3.0,32,0.00,,,0.00,839,WeatherCatV1.12B45,2013-05-30 22:20:00,
2013-05-30 15:25:00,78.8,48.0,29.87,NW,306,0.0,1.0,34,0.00,,,0.00,839,WeatherCatV1.12B45,2013-05-30 22:25:00,
2013-05-30 15:30:00,79.0,48.2,29.87,NNW,344,0.0,1.0,34,0.00,,,0.00,816,WeatherCatV1.12B45,2013-05-30 22:30:00,
2013-05-30 15:35:00,79.0,48.2,29.87,NNW,346,0.0,0.0,34,0.00,,,0.00,808,WeatherCatV1.12B45,2013-05-30 22:35:00,
2013-05-30 15:40:00,79.4,48.6,29.87,NNW,343,2.0,2.0,34,0.00,,,0.00,794,WeatherCatV1.12B45,2013-05-30 22:40:00,
2013-05-30 15:45:00,79.8,49.7,29.87,NNW,333,2.0,2.0,35,0.00,,,0.00,785,WeatherCatV1.12B45,2013-05-30 22:45:00,
2013-05-30 15:50:00,79.6,49.5,29.87,NNW,343,0.0,1.0,35,0.00,,,0.00,774,WeatherCatV1.12B45,2013-05-30 22:50:00,
2013-05-30 15:55:00,79.0,49.0,29.87,North,353,0.0,1.0,35,0.00,,,0.00,765,WeatherCatV1.12B45,2013-05-30 22:55:00,
2013-05-30 16:00:00,78.6,48.6,29.87,NW,322,0.0,1.0,35,0.00,,,0.00,765,WeatherCatV1.12B45,2013-05-30 23:00:00,
2013-05-30 16:05:00,78.6,48.6,29.87,NW,323,2.0,5.0,35,0.00,,,0.00,765,WeatherCatV1.12B45,2013-05-30 23:05:00,
2013-05-30 16:10:00,78.6,42.7,29.87,NNW,340,2.0,3.0,28,0.00,,,0.00,765,WeatherCatV1.12B45,2013-05-30 23:10:00,
2013-05-30 16:15:00,78.5,42.7,29.87,NNW,333,5.0,5.0,28,0.00,,,0.00,90,WeatherCatV1.12B45,2013-05-30 23:15:00,
2013-05-30 16:20:00,78.3,43.4,29.87,NNW,332,2.0,3.0,29,0.00,,,0.00,77,WeatherCatV1.12B45,2013-05-30 23:20:00,
2013-05-30 16:25:00,78.1,43.2,29.87,NNW,343,0.0,2.0,29,0.00,,,0.00,116,WeatherCatV1.12B45,2013-05-30 23:25:00,
2013-05-30 16:30:00,77.9,43.1,29.86,NNW,343,2.0,3.0,29,0.00,,,0.00,116,WeatherCatV1.12B45,2013-05-30 23:30:00,
2013-05-30 16:35:00,77.9,43.1,29.86,North,354,1.0,1.0,29,0.00,,,0.00,190,WeatherCatV1.12B45,2013-05-30 23:35:00,
2013-05-30 16:40:00,77.6,42.8,29.86,NNW,340,1.0,1.0,29,0.00,,,0.00,174,WeatherCatV1.12B45,2013-05-30 23:40:00,
2013-05-30 16:45:00,77.4,46.8,29.86,North,0,1.0,4.0,34,0.00,,,0.00,76,WeatherCatV1.12B45,2013-05-30 23:45:00,
2013-05-30 16:50:00,76.8,49.2,29.86,North,357,0.0,0.0,38,0.00,,,0.00,76,WeatherCatV1.12B45,2013-05-30 23:50:00,
2013-05-30 16:55:00,76.5,49.0,29.86,NNW,346,0.0,2.0,38,0.00,,,0.00,49,WeatherCatV1.12B45,2013-05-30 23:55:00,
2013-05-30 17:00:00,76.0,49.9,29.86,North,0,5.0,5.0,40,0.00,,,0.00,56,WeatherCatV1.12B45,2013-05-31 00:00:00,
2013-05-30 17:05:00,75.6,48.9,29.86,North,353,0.0,2.0,39,0.00,,,0.00,56,WeatherCatV1.12B45,2013-05-31 00:05:00,
2013-05-30 17:10:00,75.3,49.3,29.86,North,357,0.0,3.0,40,0.00,,,0.00,83,WeatherCatV1.12B45,2013-05-31 00:10:00,
2013-05-30 17:15:00,75.3,49.3,29.86,NNW,347,0.0,3.0,40,0.00,,,0.00,83,WeatherCatV1.12B45,2013-05-31 00:15:00,
2013-05-30 17:20:00,75.3,49.3,29.86,NNW,342,1.0,1.0,40,0.00,,,0.00,83,WeatherCatV1.12B45,2013-05-31 00:20:00,
2013-05-30 17:25:00,75.3,48.6,29.86,NNW,335,2.0,3.0,39,0.00,,,0.00,104,WeatherCatV1.12B45,2013-05-31 00:25:00,
2013-05-30 17:30:00,75.3,47.9,29.86,NW,322,0.0,2.0,38,0.00,,,0.00,326,WeatherCatV1.12B45,2013-05-31 00:30:00,
2013-05-30 17:35:00,75.3,47.9,29.86,North,353,1.0,2.0,38,0.00,,,0.00,468,WeatherCatV1.12B45,2013-05-31 00:35:00,
2013-05-30 17:40:00,75.4,47.3,29.86,North,353,0.0,0.0,37,0.00,,,0.00,450,WeatherCatV1.12B45,2013-05-31 00:40:00,
2013-05-30 17:45:00,75.4,47.3,29.86,North,357,1.0,1.0,37,0.00,,,0.00,431,WeatherCatV1.12B45,2013-05-31 00:45:00,
2013-05-30 17:50:00,75.4,47.3,29.86,North,357,0.0,0.0,37,0.00,,,0.00,415,WeatherCatV1.12B45,2013-05-31 00:50:00,
2013-05-30 17:55:00,75.4,47.3,29.86,NNW,346,0.0,1.0,37,0.00,,,0.00,403,WeatherCatV1.12B45,2013-05-31 00:55:00,
2013-05-30 18:00:00,75.3,47.2,29.86,North,353,0.0,1.0,37,0.00,,,0.00,384,WeatherCatV1.12B45,2013-05-31 01:00:00,
2013-05-30 18:05:00,75.3,47.2,29.86,NNW,346,0.0,1.0,37,0.00,,,0.00,366,WeatherCatV1.12B45,2013-05-31 01:05:00,
2013-05-30 18:10:00,75.3,47.9,29.86,NNW,336,1.0,1.0,38,0.00,,,0.00,366,WeatherCatV1.12B45,2013-05-31 01:10:00,
2013-05-30 18:15:00,74.7,47.4,29.86,North,350,0.0,1.0,38,0.00,,,0.00,366,WeatherCatV1.12B45,2013-05-31 01:15:00,
2013-05-30 18:20:00,74.6,48.0,29.86,North,353,0.0,0.0,39,0.00,,,0.00,366,WeatherCatV1.12B45,2013-05-31 01:20:00,
2013-05-30 18:25:00,74.4,47.8,29.86,NNW,346,1.0,1.0,39,0.00,,,0.00,366,WeatherCatV1.12B45,2013-05-31 01:25:00,
2013-05-30 18:30:00,74.4,47.1,29.86,North,357,2.0,3.0,38,0.00,,,0.00,366,WeatherCatV1.12B45,2013-05-31 01:30:00,
2013-05-30 18:35:00,74.0,48.1,29.86,North,354,0.0,1.0,40,0.00,,,0.00,267,WeatherCatV1.12B45,2013-05-31 01:35:00,
2013-05-30 18:40:00,73.7,47.2,29.86,North,353,3.0,5.0,39,0.00,,,0.00,252,WeatherCatV1.12B45,2013-05-31 01:40:00,
2013-05-30 18:45:00,73.3,46.8,29.86,North,353,0.0,2.0,39,0.00,,,0.00,238,WeatherCatV1.12B45,2013-05-31 01:45:00,
2013-05-30 18:50:00,73.3,46.8,29.86,North,353,1.0,1.0,39,0.00,,,0.00,238,WeatherCatV1.12B45,2013-05-31 01:50:00,
2013-05-30 18:55:00,73.0,46.6,29.86,North,356,0.0,1.0,39,0.00,,,0.00,238,WeatherCatV1.12B45,2013-05-31 01:55:00,
2013-05-30 19:00:00,72.7,47.0,29.87,North,357,0.0,0.0,40,0.00,,,0.00,33,WeatherCatV1.12B45,2013-05-31 02:00:00,
2013-05-30 19:05:00,72.0,47.0,29.87,NNW,343,0.0,1.0,41,0.00,,,0.00,37,WeatherCatV1.12B45,2013-05-31 02:05:00,
2013-05-30 19:10:00,71.3,47.0,29.87,North,354,0.0,1.0,42,0.00,,,0.00,30,WeatherCatV1.12B45,2013-05-31 02:10:00,
2013-05-30 19:15:00,70.9,46.7,29.87,North,357,0.0,3.0,42,0.00,,,0.00,28,WeatherCatV1.12B45,2013-05-31 02:15:00,
2013-05-30 19:20:00,70.4,47.4,29.87,North,0,0.0,2.0,44,0.00,,,0.00,26,WeatherCatV1.12B45,2013-05-31 02:20:00,
2013-05-30 19:25:00,69.9,47.0,29.87,North,357,0.0,0.0,44,0.00,,,0.00,23,WeatherCatV1.12B45,2013-05-31 02:25:00,
2013-05-30 19:30:00,69.1,46.9,29.87,NNW,335,0.0,0.0,45,0.00,,,0.00,23,WeatherCatV1.12B45,2013-05-31 02:30:00,
2013-05-30 19:35:00,68.8,46.6,29.87,North,356,1.0,1.0,45,0.00,,,0.00,21,WeatherCatV1.12B45,2013-05-31 02:35:00,
2013-05-30 19:40:00,68.4,46.8,29.87,NNW,340,0.0,3.0,46,0.00,,,0.00,18,WeatherCatV1.12B45,2013-05-31 02:40:00,
2013-05-30 19:45:00,67.9,46.3,29.88,NNW,332,0.0,2.0,46,0.00,,,0.00,18,WeatherCatV1.12B45,2013-05-31 02:45:00,
2013-05-30 19:50:00,67.6,46.6,29.88,NNW,332,0.0,1.0,47,0.00,,,0.00,14,WeatherCatV1.12B45,2013-05-31 02:50:00,
2013-05-30 19:55:00,67.3,46.4,29.88,NNW,329,0.0,0.0,47,0.00,,,0.00,11,WeatherCatV1.12B45,2013-05-31 02:55:00,
2013-05-30 20:00:00,67.1,46.2,29.88,NNW,333,0.0,0.0,47,0.00,,,0.00,11,WeatherCatV1.12B45,2013-05-31 03:00:00,
2013-05-30 20:05:00,66.9,46.0,29.88,NNW,343,0.0,0.0,47,0.00,,,0.00,11,WeatherCatV1.12B45,2013-05-31 03:05:00,
2013-05-30 20:10:00,66.6,47.9,29.88,NNW,346,0.0,0.0,51,0.00,,,0.00,11,WeatherCatV1.12B45,2013-05-31 03:10:00,
2013-05-30 20:15:00,66.3,47.6,29.88,NW,305,0.0,0.0,51,0.00,,,0.00,5,WeatherCatV1.12B45,2013-05-31 03:15:00,
2013-05-30 20:20:00,66.0,47.9,29.88,NW,318,0.0,0.0,52,0.00,,,0.00,5,WeatherCatV1.12B45,2013-05-31 03:20:00,
2013-05-30 20:25:00,65.6,48.0,29.88,WNW,287,0.0,0.0,53,0.00,,,0.00,0,WeatherCatV1.12B45,2013-05-31 03:25:00,
2013-05-30 20:30:00,65.6,48.0,29.88,SW,233,0.0,0.0,53,0.00,,,0.00,0,WeatherCatV1.12B45,2013-05-31 03:30:00,
2013-05-30 20:35:00,65.6,49.9,29.88,SW,234,0.0,0.0,57,0.00,,,0.00,0,WeatherCatV1.12B45,2013-05-31 03:35:00,
2013-05-30 20:40:00,64.2,49.1,29.88,WSW,258,0.0,0.0,58,0.00,,,0.00,0,WeatherCatV1.12B45,2013-05-31 03:40:00,
2013-05-30 20:45:00,63.7,48.6,29.88,WSW,243,0.0,0.0,58,0.00,,,0.00,0,WeatherCatV1.12B45,2013-05-31 03:45:00,
2013-05-30 20:50:00,63.2,48.2,29.88,WSW,248,0.0,0.0,58,0.00,,,0.00,0,WeatherCatV1.12B45,2013-05-31 03:50:00,
2013-05-30 20:55:00,62.9,47.9,29.88,West,277,0.0,0.0,58,0.00,,,0.00,0,WeatherCatV1.12B45,2013-05-31 03:55:00,
2013-05-30 21:00:00,62.6,47.6,29.88,WNW,296,0.0,0.0,58,0.00,,,0.00,0,WeatherCatV1.12B45,2013-05-31 04:00:00,
2013-05-30 21:05:00,62.4,47.4,29.88,NW,308,0.0,0.0,58,0.00,,,0.00,0,WeatherCatV1.12B45,2013-05-31 04:05:00,
2013-05-30 21:10:00,62.0,47.0,29.88,NW,318,0.0,0.0,58,0.00,,,0.00,0,WeatherCatV1.12B45,2013-05-31 04:10:00,
2013-05-30 21:15:00,61.5,46.6,29.89,NW,325,0.0,0.0,58,0.00,,,0.00,0,WeatherCatV1.12B45,2013-05-31 04:15:00,
2013-05-30 21:20:00,61.2,48.9,29.89,NW,325,0.0,0.0,64,0.00,,,0.00,0,WeatherCatV1.12B45,2013-05-31 04:20:00,
2013-05-30 21:25:00,60.9,49.1,29.89,NW,326,0.0,0.0,65,0.00,,,0.00,0,WeatherCatV1.12B45,2013-05-31 04:25:00,
2013-05-30 21:30:00,60.5,48.7,29.90,NNW,332,0.0,0.0,65,0.00,,,0.00,0,WeatherCatV1.12B45,2013-05-31 04:30:00,
2013-05-30 21:35:00,60.4,48.6,29.90,NW,326,0.0,0.0,65,0.00,,,0.00,0,WeatherCatV1.12B45,2013-05-31 04:35:00,
2013-05-30 21:40:00,59.9,48.9,29.90,NNW,332,0.0,0.0,67,0.00,,,0.00,0,WeatherCatV1.12B45,2013-05-31 04:40:00,
2013-05-30 21:45:00,59.6,48.6,29.90,NNW,337,0.0,0.0,67,0.00,,,0.00,0,WeatherCatV1.12B45,2013-05-31 04:45:00,
2013-05-30 21:50:00,59.3,48.3,29.90,NNW,337,0.0,0.0,67,0.00,,,0.00,0,WeatherCatV1.12B45,2013-05-31 04:50:00,
2013-05-30 21:55:00,58.9,48.4,29.90,NNW,337,0.0,0.0,68,0.00,,,0.00,0,WeatherCatV1.12B45,2013-05-31 04:55:00,
2013-05-30 22:00:00,58.7,48.2,29.90,NNW,340,0.0,0.0,68,0.00,,,0.00,0,WeatherCatV1.12B45,2013-05-31 05:00:00,
2013-05-30 22:05:00,58.4,48.3,29.90,NNW,329,0.0,0.0,69,0.00,,,0.00,0,WeatherCatV1.12B45,2013-05-31 05:05:00,
2013-05-30 22:10:00,58.1,48.4,29.90,NNW,337,0.0,0.0,70,0.00,,,0.00,0,WeatherCatV1.12B45,2013-05-31 05:10:00,
2013-05-30 22:15:00,57.8,48.1,29.91,North,353,0.0,0.0,70,0.00,,,0.00,0,WeatherCatV1.12B45,2013-05-31 05:15:00,
2013-05-30 22:20:00,57.5,47.8,29.91,North,349,0.0,0.0,70,0.00,,,0.00,0,WeatherCatV1.12B45,2013-05-31 05:20:00,
2013-05-30 22:25:00,57.3,48.3,29.91,North,353,0.0,0.0,72,0.00,,,0.00,0,WeatherCatV1.12B45,2013-05-31 05:25:00,
2013-05-30 22:30:00,57.0,48.4,29.91,NNW,344,0.0,0.0,73,0.00,,,0.00,0,WeatherCatV1.12B45,2013-05-31 05:30:00,
2013-05-30 22:35:00,56.7,48.1,29.91,North,350,0.0,0.0,73,0.00,,,0.00,0,WeatherCatV1.12B45,2013-05-31 05:35:00,
2013-05-30 22:40:00,56.5,48.3,29.91,North,353,0.0,0.0,74,0.00,,,0.00,0,WeatherCatV1.12B45,2013-05-31 05:40:00,
2013-05-30 22:45:00,56.3,48.1,29.91,SSW,192,0.0,0.0,74,0.00,,,0.00,0,WeatherCatV1.12B45,2013-05-31 05:45:00,
2013-05-30 22:50:00,56.2,48.0,29.91,NNW,347,0.0,0.0,74,0.00,,,0.00,0,WeatherCatV1.12B45,2013-05-31 05:50:00,
2013-05-30 22:55:00,55.9,48.4,29.91,North,354,0.0,0.0,76,0.00,,,0.00,0,WeatherCatV1.12B45,2013-05-31 05:55:00,
2013-05-30 23:00:00,55.7,48.3,29.91,North,353,0.0,0.0,76,0.00,,,0.00,0,WeatherCatV1.12B45,2013-05-31 06:00:00,
2013-05-30 23:05:00,55.6,48.5,29.91,North,353,0.0,0.0,77,0.00,,,0.00,0,WeatherCatV1.12B45,2013-05-31 06:05:00,
2013-05-30 23:10:00,55.4,48.3,29.91,North,354,0.0,0.0,77,0.00,,,0.00,0,WeatherCatV1.12B45,2013-05-31 06:10:00,
2013-05-30 23:15:00,55.3,48.2,29.91,North,353,0.0,0.0,77,0.00,,,0.00,0,WeatherCatV1.12B45,2013-05-31 06:15:00,
2013-05-30 23:20:00,55.1,48.4,29.91,North,350,0.0,0.0,78,0.00,,,0.00,0,WeatherCatV1.12B45,2013-05-31 06:20:00,
2013-05-30 23:25:00,55.0,48.3,29.91,NNW,347,0.0,0.0,78,0.00,,,0.00,0,WeatherCatV1.12B45,2013-05-31 06:25:00,
2013-05-30 23:30:00,54.8,48.1,29.91,NNW,343,0.0,0.0,78,0.00,,,0.00,0,WeatherCatV1.12B45,2013-05-31 06:30:00,
2013-05-30 23:35:00,54.5,48.1,29.91,NNW,346,0.0,0.0,79,0.00,,,0.00,0,WeatherCatV1.12B45,2013-05-31 06:35:00,
2013-05-30 23:40:00,54.4,48.0,29.91,NNW,343,0.0,0.0,79,0.00,,,0.00,0,WeatherCatV1.12B45,2013-05-31 06:40:00,
2013-05-30 23:45:00,54.2,47.8,29.91,NNW,344,0.0,0.0,79,0.00,,,0.00,0,WeatherCatV1.12B45,2013-05-31 06:45:00,
2013-05-30 23:50:00,54.1,48.1,29.91,NNW,343,0.0,0.0,80,0.00,,,0.00,0,WeatherCatV1.12B45,2013-05-31 06:50:00,
2013-05-30 23:55:00,53.9,47.9,29.91,NNW,340,0.0,0.0,80,0.00,,,0.00,0,WeatherCatV1.12B45,2013-05-31 06:55:00,